Regional Weather Roundup
Issued by NWS Boston, MA

Current Version | Previous Version | Text Only | Print | Product List | Glossary Off
Versions: 1 2 3 4 5 6 7 8 9 10 11 12 13 14 15 16 17 18 19 20 21 22 23 24 25 26 27
000 ASUS41 KBOX 221510 RWRBOX REGIONAL WEATHER ROUNDUP NATIONAL WEATHER SERVICE TAUNTON MA 1100 AM EDT TUE AUG 22 2017 NOTE: "FAIR" INDICATES FEW OR NO CLOUDS BELOW 12,000 FEET WITH NO SIGNIFICANT WEATHER AND/OR OBSTRUCTIONS TO VISIBILITY. MAZALL-221600- EASTERN MASSACHUSETTS CITY SKY/WX TMP DP RH WIND PRES REMARKS BOSTON MOSUNNY 79 71 76 S13 29.96F BEVERLY MOSUNNY 83 72 69 SW10G20 29.95F LAWRENCE MOSUNNY 84 71 65 S12 29.97F BEDFORD PTSUNNY 79 69 71 SW9 29.95F BLUE HILL N/A 79 69 71 SW10 29.99F NORWOOD PTSUNNY 81 73 76 S9 29.96F MARSHFIELD MOSUNNY 81 73 78 SW9G16 29.96F PLYMOUTH CLOUDY 81 71 71 SW16 29.98F TAUNTON CLOUDY 80 71 74 S8 29.98F NEW BEDFORD CLOUDY 78 72 81 SW13 29.99F $$ MAZALL-221600- CAPE COD AND THE ISLANDS CITY SKY/WX TMP DP RH WIND PRES REMARKS FALMOUTH CLOUDY 77 72 83 SW16 30.01F HYANNIS CLOUDY 76 72 87 S14 30.00F CHATHAM CLOUDY 76 73 91 VRB7 30.02F PROVINCETOWN CLOUDY 75 71 87 SW13 29.99F NANTUCKET PTSUNNY 74 72 93 SW16 30.03F MARTHAS VNYRD PTSUNNY 76 71 85 SW14G23 30.02S $$ MAZALL-221600- CENTRAL AND WESTERN MASSACHUSETTS CITY SKY/WX TMP DP RH WIND PRES REMARKS WORCESTER CLOUDY 75 68 78 SW8 30.00F FITCHBURG MOSUNNY 82 70 66 S9 29.97F ORANGE MOSUNNY 78 71 79 S8 29.96F SPRINGFIELD MOSUNNY 81 70 69 S10 29.95F WESTFIELD MOSUNNY 80 72 76 S8 29.96F NORTH ADAMS MOSUNNY 79 69 71 VRB6 29.95F PITTSFIELD SUNNY 79 69 71 SW9 29.97F $$ RIZALL-221600- RHODE ISLAND CITY SKY/WX TMP DP RH WIND PRES REMARKS PROVIDENCE PTSUNNY 81 73 76 S9 29.99F NEWPORT CLOUDY 75 74 96 SW8 30.00F BLOCK ISLAND CLOUDY 75 72 90 SW14 30.02F WESTERLY PTSUNNY 81 73 76 SW9 30.01F $$ CTZALL-221600- CONNECTICUT CITY SKY/WX TMP DP RH WIND PRES REMARKS BRADLEY INTL PTSUNNY 82 72 71 SW9 29.97F HARTFORD PTSUNNY 80 72 76 S8 29.97F BRIDGEPORT MOSUNNY 80 72 76 SW8 29.99F DANBURY MOSUNNY 83 72 69 SW8 29.99F GROTON PTSUNNY 77 72 84 S7 29.99F NEW HAVEN CLOUDY 78 72 81 SW9 30.00S CHESTER PTSUNNY 79 72 78 SW8 30.01S MERIDEN PTSUNNY 80 72 76 S8 29.98F WILLIMANTIC PTSUNNY 80 73 79 SW10 29.99S OXFORD PTSUNNY 79 73 82 VRB6 30.01F $$ MEZ002-015-021-024-NHZ003-005-008-011-012-014-VTZ005-008-221600- NORTHERN NEW ENGLAND CITY SKY/WX TMP DP RH WIND PRES REMARKS PORTLAND ME MOSUNNY 78 67 68 SE7 29.94F BANGOR ME MOSUNNY 84 64 50 SW8 29.93F CONCORD NH SUNNY 81 70 69 SE5 29.94F MANCHESTER NH PTSUNNY 81 67 62 SW9 29.93F NASHUA NH MOSUNNY 82 72 71 VRB5 29.95F PORTSMOUTH NH MOSUNNY 83 70 64 S8 29.92F JAFFREY NH MOSUNNY 77 70 79 VRB6 29.99F KEENE NH N/A N/A N/A N/A MISG N/A BURLINGTON VT CLOUDY 78 69 73 S20G26 29.84F MT. WASHINGTON MOSUNNY 55 48 76 SW28G35 N/A $$ NYZ052-076-221600- EASTERN NEW YORK CITY SKY/WX TMP DP RH WIND PRES REMARKS ALBANY MOSUNNY 79 70 74 S9 29.92F NEW YORK CITY PTSUNNY 82 74 76 SW10 29.98F $$ ANZALL-221600- MARINE OBSERVATIONS STATION/POSITION TIME TEMP WIND PRES VSBY WAVE AIR SEA DIR/SP/G HT/PER (UTC) (F) (DEG/KT/KT) (MB) (MI) (FT/S) BOSTON BUOY 1450 71 69 200/ 8/ 10 1014.4F 1/ 3 BUZZARDS BAY 1400 71 210/ 17/ 18 1016.6F NANTUCKET SOUND 1450 72 72 210/ 16/ 19 1016.2F 1/ 8 MASS BAY-STELLWA NOT AVBL ISLE OF SHOALS 1400 70 170/ 11/ 12 1014.1F S OF BLOCK IS NOT AVBL $$ ......................KEY......................... SKY/WX - SKY CONDITION/PRESENT WEATHER TMP - TEMPERATURE IN FAHRENHEIT DWPT - DEWPOINT IN FAHRENHEIT RH - RELATIVE HUMIDITY IN PERCENT WIND - DIRECTION AND SPEED IN MPH PRES - MEAN SEA LEVEL PRESSURE IN INCHES OF HG WCI - WIND CHILL INDEX VSB - VISIBILITY IN MILES HX - HEAT INDEX TC - TEMPERATURE IN CELSIUS VRB - VARIABLE WIND DIRECTION N/A - NOT AVAILABLE

USA.gov is the U.S. government's official web portal to all federal, state and local government web resources and services.